Location: Al Kil? Gharb
(25.0637°N, 32.8361°E)
Time: 14:13:11
(UTC+00:00)

Daily predictions for brighter satellites

Satellite Brightness Start Highest point End
(mag) Time Altitude Azimuth Time Altitude Azimuth Time Altitude Azimuth
Cosmos 1656 Rocket 3.8 16:56:50 10° S 17:02:13 51° ESE 17:07:33 10° NNE
Palapa 6 Rocket 4.4 16:56:27 10° W 17:03:44 74° S 17:11:30 10° E
Cosmos 1891 Rocket 4.5 17:00:34 10° N 17:06:44 80° E 17:12:46 10° S
Hubble Space Telescope 1.5 17:10:41 10° SW 17:14:05 30° SSE 17:17:28 10° E
CZ-2C R/B 3.7 17:15:20 10° SE 17:17:49 22° ENE 17:20:21 10° NNE
IRIDIUM 104 4.3 17:12:59 10° S 17:18:12 88° E 17:23:25 10° N
Cosmos 44 4.3 17:18:11 10° SSE 17:21:13 19° ESE 17:24:15 10° ENE
Cosmos 1328 3.6 17:22:32 10° S 17:26:08 84° W 17:29:48 10° N
SEDSat Delta rocket 4.0 17:24:48 10° W 17:29:36 47° SSW 17:34:10 14° SE
Meteor 1-24 Rocket 4.4 17:24:25 10° SSW 17:29:58 57° W 17:35:20 10° N
Cosmos 2034 Rocket 4.3 17:24:42 10° N 17:30:51 49° E 17:36:56 10° SSE
SJ-6B 3.4 17:27:47 10° S 17:31:14 49° W 17:34:39 10° NNW
Tiangong 0.1 17:31:06 10° W 17:33:59 29° NNW 17:36:52 10° NNE
Cosmos 2082 Rocket 2.5 17:30:41 10° N 17:36:13 51° ENE 17:40:38 16° SE
Cosmos 2369 Rocket 2.3 17:31:03 10° S 17:36:36 56° ESE 17:42:09 10° NNE
Cosmos 1300 Rocket 3.7 17:33:27 10° N 17:37:40 51° E 17:41:10 14° SSE
USA 267 3.3 17:33:15 12° SE 17:39:26 86° SW 17:46:00 10° NW
CZ-4 R/B 1.1 17:36:22 13° SSE 17:39:36 65° ENE 17:43:15 10° N
Tsikada Rocket 4.0 17:34:40 10° S 17:40:58 73° E 17:47:20 10° N
Cosmos 1777 Rocket 4.0 17:36:40 10° S 17:41:46 57° ESE 17:46:51 10° NNE
Terra 3.7 17:41:13 12° E 17:42:12 13° ENE 17:44:15 10° NE
Cosmos 1461 3.1 17:39:20 10° NNW 17:43:20 63° WSW 17:46:35 14° SSE
Resurs 01 Rocket 2.4 17:39:46 10° S 17:44:01 51° W 17:48:19 10° NNW
Delta 7925 Rocket 3.2 17:41:05 10° WSW 17:45:38 60° SSE 17:49:15 17° E
BREEZE-M R/B 3.3 17:41:36 10° NW 17:46:06 43° SW 17:48:19 17° SSE
Cosmos 1378 Rocket 4.3 17:46:23 23° SE 17:48:00 30° E 17:51:44 10° NNE
USA 186 1.8 17:49:28 37° E 17:49:49 40° ENE 17:52:23 10° N
NATO 3D Rocket 4.0 17:44:27 10° W 17:49:49 60° S 17:54:39 21° ESE
Okean-O 4.4 17:51:56 15° ENE 17:52:18 15° ENE 17:54:49 10° NE
Okean O Rocket 2.8 17:56:56 23° E 17:57:38 24° ENE 18:01:08 10° NNE
Cosmos 2263 4.1 17:54:15 10° S 17:59:52 66° ESE 18:05:28 10° NNE
SPOT 5 3.1 17:56:43 23° SSE 17:59:53 59° ENE 18:05:05 10° N
Cosmos 158 Rocket 4.0 17:55:27 10° NNW 18:00:16 69° WSW 18:04:05 16° S
PAYLOAD B 4.1 17:57:56 17° SSE 18:02:14 80° ENE 18:07:45 10° N
CZ-4B R/B 3.6 18:03:45 29° ENE 18:03:45 29° ENE 18:06:52 10° NNE
Cosmos 1606 1.9 18:02:51 10° N 18:05:54 89° ESE 18:06:26 57° S
Cosmos 1340 Rocket 3.8 18:07:50 10° NNE 18:10:37 28° ENE 18:10:37 28° ENE
Cosmos 1570 Rocket 4.0 18:07:25 10° N 18:12:37 62° ENE 18:14:30 38° SE
Helios 1B rocket 3.3 18:16:58 29° NE 18:16:58 29° NE 18:19:38 10° N
ERS-1 Rocket 3.4 18:16:05 37° E 18:16:57 40° ENE 18:21:35 10° N
ADEOS 4.4 18:25:08 16° SSW 18:28:58 45° W 18:33:56 10° NNW
OAO 2 Rocket 3.3 18:25:43 10° WSW 18:30:40 76° NNW 18:33:07 29° NE
Cosmos 990 Rocket 3.8 18:29:23 33° S 18:31:42 79° ESE 18:36:52 10° NNE
CZ-4C R/B 2.4 18:34:38 10° SW 18:38:17 44° WNW 18:42:30 10° NNE
SWIFT 4.3 18:35:58 10° WSW 18:36:43 15° SW 18:36:43 15° SW
IRS-1A Rocket 4.2 18:43:25 59° E 18:43:53 62° ENE 18:49:19 10° N
Nadezhda 4 Rocket 4.0 18:45:07 56° ESE 18:45:47 59° E 18:51:59 10° NNE
Helios 1A 3.3 18:41:57 10° N 18:45:49 58° WNW 18:46:02 56° W
Okean 2 Rocket 4.4 18:44:53 10° NNE 18:47:18 28° NE 18:47:18 28° NE
Aureole 1 Rocket 4.2 18:49:34 49° E 18:49:34 49° E 18:55:40 10° NNE
Palapa 6 Rocket 4.5 18:45:01 10° W 18:52:29 55° SSW 18:53:36 51° SSE
Hubble Space Telescope 2.3 18:50:10 10° W 18:52:05 28° W 18:52:05 28° W
Meteor 1-11 4.1 18:54:27 68° S 18:55:16 86° E 19:01:06 10° N
Cosmos 2151 Rocket 4.3 18:51:38 10° N 18:54:52 45° NNE 18:54:52 45° NNE
Cosmos 2221 Rocket 3.9 18:57:47 63° NW 18:57:47 63° NW 19:01:46 10° N
Cosmos 2285 Rocket 3.9 18:56:22 57° S 18:57:48 83° ESE 19:04:12 10° NNE
CZ-4B R/B 4.5 18:57:17 24° SW 18:59:37 34° W 19:04:28 10° NW
ASTEX 1 4.0 19:00:18 10° N 19:03:45 47° NNE 19:03:45 47° NNE
COSMOS 2406 4.3 19:01:43 10° NW 19:06:57 37° WSW 19:08:18 33° SW
Chandra Rocket (1) 3.3 18:49:23 10° WSW 19:08:42 76° SSE 19:09:46 65° ESE
Cosmos 1428 Rocket 4.4 19:10:48 71° NE 19:10:48 71° NE 19:16:27 10° N
Ariane Rocket 4.3 19:14:10 30° NNE 19:14:10 30° NNE 19:17:04 10° N
Terra 2.9 19:19:52 40° W 19:19:52 40° W 19:23:44 10° NNW
Cosmos 2180 Rocket 4.5 19:15:55 10° N 19:22:03 78° W 19:22:03 78° W
Yuri Rocket 4.4 19:18:07 10° WSW 19:27:59 85° NNW 19:29:12 68° ENE
Okean-O 4.5 19:29:18 27° WNW 19:29:18 27° WNW 19:32:07 10° NW
Okean O Rocket 3.9 19:34:12 18° W 19:34:12 18° W 19:36:44 10° NW
NOSS 3-4 (A) 4.0 19:42:21 10° NNW 19:49:40 83° WNW 19:49:40 83° WNW
NOSS 3-4 (C) 4.0 19:42:24 10° NNW 19:49:39 82° WNW 19:49:39 82° WNW
CENTAUR R/B 4.4 23:01:56 22° NNE 23:01:56 22° NNE 23:04:03 10° NNE
SL-16 R/B 4.4 23:03:12 21° NNE 23:03:12 21° NNE 23:04:59 10° NNE
Cosmos 2333 Rocket 4.3 23:09:54 23° NNE 23:09:54 23° NNE 23:11:57 10° NNE
Resurs 1-4 Rocket 4.4 23:14:37 10° NE 23:16:25 18° NE 23:16:25 18° NE
Milstar 3 Cent rocket 4.0 23:27:36 33° E 23:27:36 33° E 23:30:24 10° ENE
CZ-2D R/B 4.0 23:33:41 10° NNE 23:36:04 25° NE 23:36:04 25° NE
Cosmos 1844 Rocket 4.3 23:37:15 10° N 23:41:05 30° NE 23:41:05 30° NE
Cosmos 2360 Rocket 3.8 23:50:12 29° N 23:50:12 29° N 23:52:59 10° N
